Content
SEND FEEDBACK

Daily
Averages
Monthly
Summary
United States of America

ASATDAS, GUAM


Home > North America > United States > Guam
Elevation: 612 feet     Latitude: 13 35N     Longitude: 144 56E

WEATHER
 
SELECT A DAY
Number of Records: 209,165;   Date Range: 1/1/95 - 8/30/14
 
SHARE

PRINT THIS DATA

[ ← Previous Day ]
WEATHER ALMANAC - AUGUST 19, 2013
[ Next Day → ]
[ °C ]   °F
Weather ElementAverageHighLow
Temperature81.8 °F86 °F (1:54 pm)78.8 °F (10:16 am)
Dewpoint76.3 °F78.1 °F (7:54 am)75 °F (5:54 am)
Humidity83.5 %90 % (1:54 am)72 % (1:54 pm)
Barometer29.82 in29.87 in (10:09 am)29.77 in (3:54 pm)
Wind Speed4.7 mph11.5 mph (10:09 am)
Wind Gust18.4 mph (10:09 am)
Weather ElementAverage
Visibility9.2 mi
Wind DirectionENE (63.7 °)

Weather ElementTotal
Precipitation0.55 in
Cooling Degree Days17.4 (Base 65)
Growing Degree Days32.4 (Base 50)
Averaged from 27 records on August 19, 2013
WEATHER CONDITIONS BREAKOUT
WIND DIRECTION BREAKOUT
WEATHER BY HOUR - AUGUST 19, 2013
[ °C ]   °F
Local TimeTemperatureDewpointHumidityBarometerVisibilityWind DirectionWind SpeedGust SpeedPrecipitationEventsConditions
1:54 AM80.1 °F77.0 °F90 %29.81 in10.0 miCalmClear
2:54 AM80.1 °F77.0 °F90 %29.80 in10.0 miCalmMostly Cloudy
3:54 AM81.0 °F75.9 °F85 %29.80 in10.0 miCalmClear
4:54 AM80.1 °F75.9 °F87 %29.80 in10.0 miEast (90°)6.9 mph0.00 inRainLight Rain
5:54 AM79.0 °F75.0 °F88 %29.80 in10.0 miCalm0.00 inClear
6:54 AM80.1 °F75.9 °F87 %29.81 in10.0 miCalmClear
7:54 AM82.9 °F78.1 °F85 %29.83 in10.0 miEast (90°)3.5 mphClear
8:54 AM84.0 °F77.0 °F79 %29.84 in10.0 miEast (80°)5.8 mphPartly Cloudy
9:54 AM82.9 °F77.0 °F82 %29.85 in10.0 miESE (110°)3.5 mphScattered Clouds
10:09 AM80.6 °F75.2 °F84 %29.87 in2.5 miENE (60°)11.5 mph18.4 mph0.00 inRainRain
10:16 AM78.8 °F75.2 °F89 %29.87 in1.2 miNE (50°)11.5 mph18.4 mph0.13 inRainLight Rain
10:21 AM78.8 °F75.2 °F89 %29.87 in4.0 miNE (50°)10.4 mph0.14 inRain-ThunderstormThunderstorms and Rain
10:41 AM78.8 °F75.2 °F89 %29.87 in10.0 miNorth (350°)4.6 mph0.14 inMostly Cloudy
10:54 AM80.1 °F75.9 °F87 %29.84 in10.0 miNNE (30°)3.5 mph0.14 inMostly Cloudy
11:54 AM82.0 °F78.1 °F88 %29.83 in10.0 miNE (40°)4.6 mphClear
12:54 PM82.0 °F77.0 °F85 %29.81 in10.0 miEast (80°)4.6 mphClear
1:54 PM86.0 °F75.9 °F72 %29.78 in10.0 miEast (90°)5.8 mphPartly Cloudy
2:54 PM84.0 °F75.0 °F74 %29.78 in10.0 miEast (80°)5.8 mphPartly Cloudy
3:54 PM84.9 °F75.9 °F74 %29.77 in10.0 miEast (80°)8.1 mphPartly Cloudy
4:54 PM84.9 °F75.9 °F74 %29.77 in10.0 miEast (90°)9.2 mphPartly Cloudy
5:54 PM84.0 °F75.9 °F76 %29.78 in10.0 miEast (80°)8.1 mphPartly Cloudy
6:54 PM82.9 °F75.9 °F79 %29.80 in10.0 miENE (60°)4.6 mphPartly Cloudy
7:54 PM82.9 °F77.0 °F82 %29.82 in10.0 miENE (60°)5.8 mphPartly Cloudy
8:54 PM82.0 °F77.0 °F85 %29.83 in10.0 miENE (60°)4.6 mphPartly Cloudy
9:54 PM82.0 °F77.0 °F85 %29.84 in10.0 miEast (90°)4.6 mphPartly Cloudy
10:54 PM82.0 °F77.0 °F85 %29.85 in10.0 miCalmPartly Cloudy
11:54 PM82.0 °F77.0 °F85 %29.83 in10.0 miCalmPartly Cloudy
Hourly data recorded from PGUM, located miles away from Asatdas, Guam







STORIES FROM OUR PARTNERS